Change the Weather History Date:

Saturday, November 10, 2012

  Actual Average Record
Temperature  
Mean Temperature 56 °F -  
Max Temperature 70 °F 70 °F 80 °F (1998)
Min Temperature 43 °F 50 °F 37 °F (1996)
Degree Days  
Heating Degree Days 8    
Growing Degree Days 6 (Base 50)    
Moisture  
Dew Point 53 °F    
Average Humidity 74    
Maximum Humidity 97    
Minimum Humidity 50    
Precipitation  
Precipitation 0.00 in - - ()
Sea Level Pressure  
Sea Level Pressure 30.27 in    
Wind  
Wind Speed 5 mph (East)    
Max Wind Speed 10 mph    
Max Gust Speed -    
Visibility 10 miles    
Events      
Averages and records for this station are not official NWS values.
T = Trace of Precipitation, MM = Missing Value Source: NWS Daily Summary

Daily Weather History Graph

Daily Weather History Graph

Search for Another Location

Airport or City:

Trip Planner

Search our weather history database for the weather conditions in past years. The results will help you decide how hot, cold, wet, or windy it might be!

Date:

Astronomy

Nov. 10, 2012 Rise Set
Actual Time 6:08 AM CST 4:52 PM CST
Civil Twilight 5:43 AM CST 5:17 PM CST
Nautical Twilight 5:14 AM CST 5:46 PM CST
Astronomical Twilight 4:46 AM CST 6:14 PM CST
Moon 2:27 AM CST (11/10) 2:27 PM CST (11/10)
Length of Visible Light 11h 33m
Length of Day
10h 43m
Waning Crescent, 14% of the Moon is Illuminated
Nov 10
Waning Crescent
Nov 13
New
Nov 20
First Quarter
Nov 28
Full
Dec 6
Last Quarter

Hourly Weather History & Observations

Time (CST) Temp. Windchill Dew Point Humidity Pressure Visibility Wind Dir Wind Speed Gust Speed Precip Events Conditions
12:55 AM 43.7 °F 41.1 °F 42.6 °F 96% 30.24 in 10.0 mi NNE 4.6 mph - N/A   Clear
1:55 AM 44.4 °F 42.0 °F 43.5 °F 97% 30.24 in 10.0 mi NNE 4.6 mph - N/A   Clear
2:55 AM 45.3 °F 43.0 °F 44.6 °F 97% 30.25 in 10.0 mi NNE 4.6 mph - N/A   Clear
3:55 AM 45.9 °F 44.6 °F 44.8 °F 96% 30.25 in 10.0 mi NE 3.5 mph - N/A   Clear
4:55 AM 46.4 °F 45.2 °F 45.0 °F 95% 30.26 in 10.0 mi Variable 3.5 mph - N/A   Clear
5:55 AM 48.7 °F - 47.5 °F 95% 30.28 in 10.0 mi ENE 5.8 mph - N/A   Clear
6:55 AM 51.1 °F - 48.9 °F 92% 30.30 in 10.0 mi ENE 6.9 mph - N/A   Clear
7:55 AM 57.6 °F - 52.7 °F 84% 30.31 in 10.0 mi East 6.9 mph - N/A   Clear
8:55 AM 64.0 °F - 51.4 °F 64% 30.32 in 10.0 mi East 9.2 mph - N/A   Clear
9:55 AM 67.1 °F - 50.2 °F 55% 30.33 in 10.0 mi East 8.1 mph - N/A   Clear
10:55 AM 70.2 °F - 50.7 °F 50% 30.32 in 10.0 mi ESE 10.4 mph - N/A   Clear
11:55 AM 70.5 °F - 52.7 °F 53% 30.29 in 10.0 mi SE 10.4 mph - N/A   Clear
12:55 PM 69.8 °F - 55.4 °F 60% 30.27 in 10.0 mi SE 9.2 mph - N/A   Clear
1:55 PM 69.4 °F - 57.2 °F 65% 30.26 in 10.0 mi SE 9.2 mph - N/A   Clear
2:55 PM 69.8 °F - 58.5 °F 67% 30.25 in 10.0 mi SE 6.9 mph - N/A   Clear
3:55 PM 68.5 °F - 59.0 °F 72% 30.25 in 10.0 mi ESE 6.9 mph - N/A   Partly Cloudy
4:19 PM 68.0 °F - 59.0 °F 73% 30.26 in 10.0 mi ESE 4.6 mph - N/A   Mostly Cloudy
4:49 PM 66.2 °F - 59.0 °F 78% 30.26 in 10.0 mi East 6.9 mph - N/A   Scattered Clouds
4:55 PM 66.7 °F - 58.1 °F 74% 30.26 in 10.0 mi East 4.6 mph - N/A   Scattered Clouds
5:29 PM 66.2 °F - 57.2 °F 73% 30.26 in 10.0 mi East 3.5 mph - N/A   Mostly Cloudy
5:55 PM 66.0 °F - 57.6 °F 74% 30.27 in 10.0 mi Calm Calm - N/A   Mostly Cloudy
6:00 PM 66.2 °F - 57.2 °F 73% 30.27 in 10.0 mi East 3.5 mph - N/A   Scattered Clouds
6:55 PM 65.8 °F - 55.6 °F 69% 30.27 in 10.0 mi Calm Calm - N/A   Clear
7:14 PM 66.2 °F - 55.4 °F 68% 30.27 in 10.0 mi Calm Calm - N/A   Light Drizzle
7:23 PM 66.2 °F - 55.4 °F 68% 30.27 in 10.0 mi Calm Calm - N/A   Clear
7:55 PM 66.2 °F - 56.7 °F 71% 30.27 in 10.0 mi Calm Calm - 0.00 in   Clear
8:55 PM 66.6 °F - 54.1 °F 64% 30.28 in 10.0 mi ESE 6.9 mph - N/A   Clear
9:55 PM 66.0 °F - 55.0 °F 68% 30.27 in 10.0 mi ESE 5.8 mph - N/A   Clear
10:55 PM 65.7 °F - 54.0 °F 66% 30.26 in 10.0 mi ESE 4.6 mph - N/A   Clear
11:55 PM 64.8 °F - 54.0 °F 68% 30.24 in 10.0 mi North 4.6 mph - N/A   Clear